Location: B?dimalle
(17.1788°N, 80.5377°E)
Time: 10:07:52
(UTC+00:00)

Tiros 1 despin weight - Pass Details

Date: 21 February 2026
Orbit: 556 x 593 km, 48.2° (Epoch: 10 March)

Event Time Altitude Azimuth Distance (km) Brightness Sun altitude
Rises 15:52:38 0° 319° (NW) 2,729 - -46.2°
Reaches altitude 10° 15:54:53 10° 320° (NW) 1,838 - -46.7°
Maximum altitude 15:59:05 81° 47° (NE) 571 - -47.7°
Drops below altitude 10° 16:03:19 10° 136° (SE) 1,855 - -48.7°
Sets 16:05:35 0° 137° (SE) 2,758 - -49.2°
